Weather in Pavino

Russia / Kostroma Oblast     59°06′53″N   46°08′33″E
temp.,
°C
wind,
m/s
gust,
m/s
humid.,
%
clouds,
%
prec.,
mm/h
press.,
hPa
HPBL,
m
6 march, sat
sat600:00−18wnw23970 0.0 100831
03:00−19wnw239838 0.0 101146
06:00−20wnw259875 0.0 101193
09:00−17wnw249458 0.0 1012224
12:00−12wnw248779 0.0 1012629
15:00−11w358689 0.1 1011853
18:00−15w2294100 0.1 101121
21:00−18wsw229780 0.1 101120
7 march, sun
sun700:00−20sw2210015 0.0 100920
03:00−20ssw2310047 0.0 100830
06:00−20s2510097 0.0 100799
09:00−16sse369799 0.1 1005242
12:00−10sse4990100 0.0 1002541
15:00−9se51090100 0.1 999690
18:00−10se51194100 0.6 997842
21:00−10se51194100 1.3 995725
8 march, mon
mon800:00−10ese51094100 0.7 992630
03:00−11e51094100 1.3 991502
06:00−12ene41094100 0.7 991463
09:00−11ene4993100 1.3 992483
12:00−10ne4792100 0.3 993550
15:00−9ne4691100 0.8 995641
18:00−11nne4993100 0.3 996514
21:00−12nne41092100 0.4 998478
9 march, tue
tue900:00−14n41092100 0.1 1000498
03:00−15n41093100 0.1 1002503
06:00−17nnw4993100 0.1 1004412
09:00−17nnw4892100 0.1 1007420
12:00−15nnw3691100 0.0 1009504
15:00−15nnw4690100 0.1 1011589
18:00−18nnw3895100 0.1 1012289
21:00−22n399697 0.1 1015302
10 march, wed
wed1000:00−25n379887 0.0 1016141
03:00−28n259873 0.0 1018107
06:00−30n37970 0.0 1020133
09:00−26n36940 0.0 1021264
12:00−19n258922 0.0 1021420
15:00−17nnw348511 0.0 1020555
18:00−21nw239526 0.0 102123
21:00−22wnw269636 0.0 1021109